Location: *
(34.6903°N, 135.5184°E)
Time: 00:28:53
(UTC+00:00)

Meteor 1-19 Rocket - Pass Details

Date: 22 September 2019
Orbit: 818 x 916 km, 81.2° (Epoch: 15 October)

Event Time Altitude Azimuth Distance (km) Brightness Sun altitude
Rises 19:53:12 0° 186° (S) 3,394 7.2 -11.7°
Reaches altitude 10° 19:55:34 10° 187° (S) 2,476 6.5 -11.2°
Maximum altitude 20:01:13 90° 118° (ESE) 876 4.3 -10.0°
Drops below altitude 10° 20:07:03 10° 8° (N) 2,559 6.9 -8.8°
Sets 20:09:32 0° 9° (N) 3,515 7.6 -8.3°
